Fort Bragg, NC

2:52 AM EDT on March 25, 2017 (GMT -0400)
Simmons Army Air Field

Weather History for KFBG - July, 2013

Change the Weather History Date:

Tuesday, July 30, 2013

  Actual Average Record
Temperature  
Mean Temperature 78 °F -  
Max Temperature 88 °F 87 °F 99 °F (2011)
Min Temperature 68 °F 70 °F 62 °F (2014)
Cooling Degree Days 12    
Growing Degree Days 28 (Base 50)    
Moisture  
Dew Point 68 °F    
Average Humidity 72    
Maximum Humidity 99    
Minimum Humidity 45    
Precipitation  
Precipitation 0.00 in - - ()
Sea Level Pressure  
Sea Level Pressure 30.17 in    
Wind  
Wind Speed 4 mph (NE)    
Max Wind Speed 9 mph    
Max Gust Speed -    
Visibility 10 miles    
Events Rain    
Averages and records for this station are not official NWS values.
T = Trace of Precipitation, MM = Missing Value Source: NWS Daily Summary

Daily Weather History Graph

Daily Weather History Graph

Search for Another Location

Airport or City:

Trip Planner

Search our weather history database for the weather conditions in past years. The results will help you decide how hot, cold, wet, or windy it might be!

Date:

Astronomy

Jul. 30, 2013 Rise Set
Actual Time 6:23 AM EDT 8:20 PM EDT
Civil Twilight 5:55 AM EDT 8:48 PM EDT
Nautical Twilight 5:21 AM EDT 9:22 PM EDT
Astronomical Twilight 4:45 AM EDT 9:58 PM EDT
Moon 12:38 AM EDT (7/30) 2:39 PM EDT (7/30)
Length of Visible Light 14h 52m
Length of Day
13h 56m
Last Quarter, 41% of the Moon is Illuminated
Jul 30
Last Quarter
Aug 6
New
Aug 14
First Quarter
Aug 20
Full
Aug 28
Last Quarter

Hourly Weather History & Observations

Time (EDT) Temp. Heat Index Dew Point Humidity Pressure Visibility Wind Dir Wind Speed Gust Speed Precip Events Conditions
12:58 AM 72.3 °F - 72.0 °F 99% 30.17 in 10.0 mi South 2.3 mph - N/A   Clear
1:58 AM 71.4 °F - 71.2 °F 99% 30.17 in 10.0 mi West 2.3 mph - N/A   Clear
2:58 AM 70.9 °F - 70.7 °F 99% 30.17 in 10.0 mi Calm Calm - N/A   Partly Cloudy
3:58 AM 70.7 °F - 70.3 °F 99% 30.15 in 10.0 mi North 1.2 mph - N/A   Partly Cloudy
4:58 AM 69.8 °F - 69.4 °F 99% 30.15 in 10.0 mi NNW 2.3 mph - N/A   Scattered Clouds
5:58 AM 69.3 °F - 69.1 °F 99% 30.17 in 10.0 mi NNW 4.6 mph - N/A   Clear
6:58 AM 68.7 °F - 68.4 °F 99% 30.19 in 10.0 mi NNW 5.8 mph - N/A   Clear
7:58 AM 71.4 °F - 67.6 °F 88% 30.21 in 10.0 mi North 5.8 mph - N/A   Clear
8:58 AM 74.1 °F - 65.3 °F 74% 30.22 in 10.0 mi NNE 3.5 mph - N/A   Clear
9:58 AM 77.7 °F - 65.3 °F 65% 30.22 in 10.0 mi NE 5.8 mph - N/A   Clear
10:40 AM 80.6 °F 83.2 °F 68.0 °F 65% 30.21 in 10.0 mi ENE 5.8 mph - N/A Rain Light Rain
10:58 AM 82.0 °F 85.1 °F 68.2 °F 63% 30.22 in 10.0 mi ENE 9.2 mph - 0.00 in Rain Light Rain
11:23 AM 82.4 °F 85.4 °F 68.0 °F 62% 30.20 in 10.0 mi ENE 8.1 mph - N/A   Clear
11:58 AM 84.0 °F 86.5 °F 66.9 °F 56% 30.20 in 10.0 mi East 9.2 mph - 0.00 in   Clear
12:18 PM 86.0 °F 88.2 °F 66.2 °F 51% 30.20 in 10.0 mi East 9.2 mph - N/A Rain Light Rain
12:41 PM 86.0 °F 88.2 °F 66.2 °F 51% 30.19 in 10.0 mi East 8.1 mph - N/A   Clear
12:58 PM 84.7 °F 87.1 °F 66.2 °F 54% 30.19 in 10.0 mi East 8.1 mph - 0.00 in   Partly Cloudy
1:58 PM 86.7 °F 88.7 °F 65.5 °F 49% 30.17 in 10.0 mi NE 8.1 mph - N/A   Clear
2:58 PM 86.2 °F 88.8 °F 66.7 °F 52% 30.15 in 10.0 mi Variable 4.6 mph - N/A   Partly Cloudy
3:58 PM 86.7 °F 88.4 °F 64.8 °F 48% 30.14 in 10.0 mi Variable 5.8 mph - N/A   Partly Cloudy
4:58 PM 87.1 °F 88.0 °F 63.5 °F 45% 30.14 in 10.0 mi ENE 4.6 mph - N/A   Clear
5:58 PM 86.5 °F 88.1 °F 64.6 °F 48% 30.14 in 10.0 mi NNE 3.5 mph - N/A   Clear
6:58 PM 82.8 °F 85.5 °F 67.6 °F 60% 30.14 in 10.0 mi Variable 3.5 mph - N/A   Clear
7:58 PM 82.2 °F 85.1 °F 68.2 °F 62% 30.14 in 10.0 mi North 1.2 mph - N/A   Clear
8:58 PM 79.0 °F - 71.8 °F 78% 30.14 in 10.0 mi NE 2.3 mph - N/A   Clear
9:58 PM 76.5 °F - 73.8 °F 91% 30.15 in 10.0 mi Variable 2.3 mph - N/A   Scattered Clouds
10:58 PM 76.8 °F - 71.1 °F 82% 30.15 in 10.0 mi NE 1.2 mph - N/A   Scattered Clouds
11:58 PM 77.0 °F - 71.8 °F 84% 30.15 in 10.0 mi ESE 3.5 mph - N/A   Clear